This demonstration page uses our WeatherBlox Daily Observations layout. Learn more.

Left ArrowRight Arrow

44.8408, -93.29828

Hourly Observations for March 6, 2020

Temp ( °F °C ) Dew Point ( °F °C ) Humidity (%) Winds ( mph kmh ) Pressure ( in mb ) Visibility ( mi km ) Precip ( " mm )
12:53 am 00:53 Clear 28 -2.2 18 -7.8 66 66 N 8 13 30.40 1030 10 16 0.00 0.00
1:53 am 01:53 Clear 28 -2.2 17 -8.3 63 63 N 10 17 30.43 1031 10 16 0.00 0.00
2:53 am 02:53 Clear 28 -2.2 17 -8.3 63 63 N 10 17 30.44 1031 10 16 0.00 0.00
3:53 am 03:53 Clear 26 -3.3 16 -8.9 66 66 N 7 11 30.46 1032 10 16 0.00 0.00
4:53 am 04:53 Clear 26 -3.3 16 -8.9 66 66 N 8 13 30.48 1032 10 16 0.00 0.00
5:53 am 05:53 Clear 25 -3.9 17 -8.3 72 72 Calm 30.51 1033 10 16 0.00 0.00
6:53 am 06:53 Sunny 24 -4.4 16 -8.9 71 71 NNW 5 7 30.53 1034 10 16 0.00 0.00
7:53 am 07:53 Sunny 26 -3.3 17 -8.3 69 69 NNE 6 9 30.53 1034 10 16 0.00 0.00
8:53 am 08:53 Sunny 28 -2.2 16 -8.9 60 60 NE 5 7 30.55 1035 10 16 0.00 0.00
9:53 am 09:53 Mostly Sunny 30 -1.1 15 -9.4 54 54 Calm 30.56 1035 10 16 0.00 0.00
10:53 am 10:53 Mostly Sunny 32 0 13 -10.6 45 45 Calm 30.57 1035 10 16 0.00 0.00
11:53 am 11:53 Mostly Sunny 34 1.1 13 -10.6 42 42 VRB 6 9 30.56 1035 10 16 0.00 0.00
12:53 pm 12:53 Mostly Sunny 36 2.2 12 -11.1 37 37 VRB 5 7 30.53 1034 10 16 0.00 0.00
1:53 pm 13:53 Mostly Sunny 39 3.9 14 -10 36 36 VRB 6 9 30.50 1033 10 16 0.00 0.00
2:53 pm 14:53 Mostly Sunny 38 3.3 10 -12.2 31 31 S 8 13 30.48 1032 10 16 0.00 0.00
3:53 pm 15:53 Partly Cloudy 38 3.3 13 -10.6 36 36 SE 7 11 30.46 1031 10 16 0.00 0.00
4:53 pm 16:53 Partly Cloudy 37 2.8 12 -11.1 36 36 SE 12 19 30.44 1031 10 16 0.00 0.00
5:53 pm 17:53 Partly Cloudy 35 1.7 12 -11.1 38 38 SSE 10 17 30.42 1030 10 16 0.00 0.00
6:53 pm 18:53 Mostly Clear 32 0 16 -8.9 52 52 SSE 8 13 30.41 1030 10 16 0.00 0.00
7:53 pm 19:53 Mostly Clear 31 -0.6 18 -7.8 59 59 SSE 8 13 30.40 1030 10 16 0.00 0.00
8:53 pm 20:53 Mostly Clear 31 -0.6 19 -7.2 61 61 SSE 7 11 30.41 1030 10 16 0.00 0.00
9:53 pm 21:53 Mostly Clear 30 -1.1 19 -7.2 64 64 SSE 10 17 30.40 1030 10 16 0.00 0.00
10:53 pm 22:53 Clear 32 0 20 -6.7 61 61 SSE 12 19 30.37 1029 10 16 0.00 0.00
11:53 pm 23:53 Clear 32 0 20 -6.7 61 61 SSE 14 22 30.34 1028 10 16 0.00 0.00

Powered by AerisWeather